| time (UTC) | temp C | wind direction | speed KPH | gust KPH | rain 1hr cm | rain 24hr cm | rain mn cm | humidity % | barometer mb |
| 20260507164626 | 23 | 0 | 1.6 | 4.8 | 0.00 | 0.00 | 0.00 | 47 | 1011.8 |
| 20260507163101 | 23 | 360 | 0.0 | 4.8 | 0.00 | 0.00 | 0.00 | 48 | 1011.7 |
| 20260507161606 | 23 | 360 | 0.0 | 8.0 | 0.00 | 0.00 | 0.00 | 47 | 1011.8 |
| 20260507160057 | 23 | 360 | 0.0 | 6.4 | 0.00 | 0.00 | 0.00 | 47 | 1011.9 |
| 20260507154556 | 24 | 360 | 1.6 | 4.8 | 0.00 | 0.00 | 0.00 | 47 | 1012.0 |
| 20260507153057 | 24 | 360 | 0.0 | 3.2 | 0.00 | 0.00 | 0.00 | 46 | 1012.0 |
| 20260507151556 | 24 | 284 | 0.0 | 4.8 | 0.00 | 0.00 | 0.00 | 44 | 1012.0 |
| 20260507150058 | 24 | 0 | 0.0 | 9.7 | 0.00 | 0.00 | 0.00 | 47 | 1012.0 |
| 20260507144600 | 23 | 360 | 1.6 | 6.4 | 0.00 | 0.00 | 0.00 | 47 | 1012.2 |
| 20260507143108 | 23 | 360 | 0.0 | 8.0 | 0.00 | 0.00 | 0.00 | 44 | 1012.3 |
| 20260507141618 | 24 | 360 | 3.2 | 9.7 | 0.00 | 0.00 | 0.00 | 45 | 1012.1 |
| 20260507140058 | 24 | 273 | 1.6 | 9.7 | 0.00 | 0.00 | 0.00 | 44 | 1012.2 |
| 20260507134617 | 23 | 0 | 0.0 | 6.4 | 0.00 | 0.00 | 0.00 | 48 | 1012.3 |
| 20260507133110 | 23 | 0 | 1.6 | 6.4 | 0.00 | 0.00 | 0.00 | 49 | 1012.4 |
| 20260507131612 | 23 | 34 | 1.6 | 9.7 | 0.00 | 0.00 | 0.00 | 48 | 1012.5 |
| 20260507130058 | 23 | 360 | 0.0 | 4.8 | 0.00 | 0.00 | 0.00 | 50 | 1012.5 |
| 20260507124558 | 23 | 360 | 1.6 | 6.4 | 0.00 | 0.00 | 0.00 | 46 | 1012.6 |
| 20260507123112 | 23 | 360 | 1.6 | 6.4 | 0.00 | 0.00 | 0.00 | 48 | 1012.4 |
| 20260507121557 | 23 | 360 | 1.6 | 6.4 | 0.00 | 0.00 | 0.00 | 48 | 1012.7 |
| 20260507120058 | 23 | 360 | 0.0 | 8.0 | 0.00 | 0.00 | 0.00 | 50 | 1012.9 |
| 20260507114600 | 23 | 360 | 0.0 | 4.8 | 0.00 | 0.00 | 0.00 | 48 | 1012.9 |
| 20260507113057 | 23 | 360 | 3.2 | 8.0 | 0.00 | 0.00 | 0.00 | 48 | 1013.0 |
| 20260507111559 | 23 | 360 | 0.0 | 8.0 | 0.00 | 0.00 | 0.00 | 49 | 1013.1 |
| 20260507110057 | 23 | 360 | 1.6 | 8.0 | 0.00 | 0.00 | 0.00 | 45 | 1013.3 |
| 20260507104601 | 22 | 360 | 1.6 | 6.4 | 0.00 | 0.00 | 0.00 | 52 | 1013.3 |
| 20260507103100 | 22 | 360 | 1.6 | 8.0 | 0.00 | 0.00 | 0.00 | 51 | 1013.5 |
| 20260507101557 | 22 | 0 | 0.0 | 4.8 | 0.00 | 0.00 | 0.00 | 54 | 1013.6 |
| 20260507100110 | 22 | 360 | 1.6 | 8.0 | 0.00 | 0.00 | 0.00 | 53 | 1013.7 |
| 20260507094557 | 22 | 360 | 1.6 | 12.9 | 0.00 | 0.00 | 0.00 | 59 | 1013.7 |
| 20260507093059 | 21 | 360 | 1.6 | 6.4 | 0.00 | 0.00 | 0.00 | 56 | 1013.8 |
| 20260507091601 | 21 | 360 | 0.0 | 8.0 | 0.00 | 0.00 | 0.00 | 59 | 1013.8 |
| 20260507090103 | 21 | 360 | 1.6 | 6.4 | 0.00 | 0.00 | 0.00 | 58 | 1013.8 |
| 20260507084557 | 21 | 360 | 0.0 | 6.4 | 0.00 | 0.00 | 0.00 | 61 | 1013.7 |
| 20260507083058 | 20 | 360 | 0.0 | 8.0 | 0.00 | 0.00 | 0.00 | 62 | 1013.6 |
| 20260507081557 | 20 | 0 | 0.0 | 6.4 | 0.00 | 0.00 | 0.00 | 66 | 1013.6 |
| 20260507080117 | 19 | 360 | 0.0 | 6.4 | 0.00 | 0.00 | 0.00 | 66 | 1013.4 |
| 20260507074557 | 19 | 360 | 0.0 | 4.8 | 0.00 | 0.00 | 0.00 | 65 | 1013.6 |
| 20260507073057 | 18 | 0 | 0.0 | 4.8 | 0.00 | 0.00 | 0.00 | 67 | 1013.6 |
| 20260507071604 | 17 | 360 | 0.0 | 4.8 | 0.00 | 0.00 | 0.00 | 67 | 1013.4 |
| 20260507070104 | 17 | 360 | 1.6 | 4.8 | 0.00 | 0.00 | 0.00 | 67 | 1013.4 |
| 20260507064629 | 16 | 360 | 0.0 | 4.8 | 0.00 | 0.00 | 0.00 | 68 | 1013.3 |
| 20260507063112 | 16 | 0 | 0.0 | 3.2 | 0.00 | 0.00 | 0.00 | 70 | 1013.3 |
| 20260507061559 | 15 | 0 | 0.0 | 4.8 | 0.00 | 0.00 | 0.00 | 68 | 1013.2 |
| 20260507060115 | 13 | 0 | 0.0 | 3.2 | 0.00 | 0.00 | 0.00 | 70 | 1013.3 |
| 20260507054606 | 13 | 287 | 0.0 | 3.2 | 0.00 | 0.00 | 0.00 | 74 | 1013.1 |
| 20260507053107 | 12 | 0 | 0.0 | 0.0 | 0.00 | 0.00 | 0.00 | 77 | 1012.9 |
| 20260507051606 | 11 | 0 | 0.0 | 0.0 | 0.00 | 0.00 | 0.00 | 81 | 1012.7 |
| 20260507050055 | 10 | 0 | 0.0 | 0.0 | 0.00 | 0.00 | 0.00 | 82 | 1012.5 |
| 20260507044559 | 10 | 0 | 0.0 | 0.0 | 0.00 | 0.00 | 0.00 | 82 | 1012.2 |
| 20260507043059 | 10 | 0 | 0.0 | 0.0 | 0.00 | 0.00 | 0.00 | 82 | 1012.0 |
| 20260507041556 | 10 | 0 | 0.0 | 0.0 | 0.00 | 0.00 | 0.00 | 81 | 1011.9 |
| 20260507040058 | 10 | 0 | 0.0 | 0.0 | 0.00 | 0.00 | 0.00 | 80 | 1011.8 |
| 20260507034555 | 11 | 0 | 0.0 | 0.0 | 0.00 | 0.00 | 0.00 | 79 | 1011.7 |
| 20260507033057 | 11 | 0 | 0.0 | 0.0 | 0.00 | 0.00 | 0.00 | 79 | 1011.6 |
| 20260507031555 | 11 | 0 | 0.0 | 0.0 | 0.00 | 0.00 | 0.00 | 78 | 1011.5 |
| 20260507030056 | 11 | 0 | 0.0 | 0.0 | 0.00 | 0.00 | 0.00 | 79 | 1011.6 |
| 20260507024555 | 11 | 0 | 0.0 | 0.0 | 0.00 | 0.00 | 0.00 | 78 | 1011.5 |
| 20260507023055 | 11 | 0 | 0.0 | 0.0 | 0.00 | 0.00 | 0.00 | 79 | 1011.7 |
| 20260507021556 | 11 | 0 | 0.0 | 0.0 | 0.00 | 0.00 | 0.00 | 78 | 1011.7 |
| 20260507020118 | 11 | 0 | 0.0 | 0.0 | 0.00 | 0.00 | 0.00 | 79 | 1011.7 |
| 20260507014601 | 11 | 0 | 0.0 | 0.0 | 0.00 | 0.00 | 0.00 | 78 | 1011.7 |
| 20260507013057 | 11 | 0 | 0.0 | 3.2 | 0.00 | 0.00 | 0.00 | 78 | 1011.6 |
| 20260507011557 | 11 | 0 | 0.0 | 0.0 | 0.00 | 0.00 | 0.00 | 78 | 1011.6 |
| 20260507010110 | 11 | 0 | 0.0 | 0.0 | 0.00 | 0.00 | 0.00 | 77 | 1011.5 |
| 20260507004557 | 12 | 0 | 0.0 | 0.0 | 0.00 | 0.00 | 0.00 | 77 | 1011.3 |
| 20260507003054 | 12 | 0 | 0.0 | 0.0 | 0.00 | 0.00 | 0.00 | 76 | 1011.2 |
| 20260507001605 | 12 | 0 | 0.0 | 0.0 | 0.00 | 0.00 | 0.00 | 76 | 1011.2 |
| 20260507000059 | 12 | 360 | 0.0 | 1.6 | 0.00 | 0.00 | 0.00 | 76 | 1011.3 |
| 20260506234600 | 12 | 0 | 0.0 | 0.0 | 0.00 | 0.00 | 0.00 | 75 | 1011.1 |
| 20260506233100 | 12 | 0 | 0.0 | 0.0 | 0.00 | 0.00 | 0.00 | 74 | 1011.2 |
| 20260506231610 | 13 | 0 | 0.0 | 0.0 | 0.00 | 0.00 | 0.00 | 74 | 1011.1 |
| 20260506230126 | 13 | 0 | 0.0 | 0.0 | 0.00 | 0.00 | 0.00 | 72 | 1011.2 |
| 20260506224603 | 13 | 0 | 0.0 | 1.6 | 0.00 | 0.00 | 0.00 | 71 | 1011.2 |
| 20260506223103 | 13 | 0 | 0.0 | 0.0 | 0.00 | 0.00 | 0.00 | 70 | 1011.0 |
| 20260506221631 | 14 | 0 | 0.0 | 0.0 | 0.00 | 0.00 | 0.00 | 70 | 1011.1 |
| 20260506220124 | 14 | 0 | 0.0 | 4.8 | 0.00 | 0.00 | 0.00 | 70 | 1011.2 |
| 20260506214600 | 14 | 0 | 0.0 | 3.2 | 0.00 | 0.00 | 0.00 | 70 | 1011.3 |
| 20260506213110 | 14 | 0 | 0.0 | 3.2 | 0.00 | 0.00 | 0.00 | 70 | 1011.1 |
| 20260506211600 | 15 | 360 | 0.0 | 0.0 | 0.00 | 0.00 | 0.00 | 70 | 1011.2 |
| 20260506210106 | 15 | 0 | 0.0 | 0.0 | 0.00 | 0.00 | 0.00 | 68 | 1011.1 |
| 20260506204607 | 15 | 360 | 0.0 | 3.2 | 0.00 | 0.00 | 0.00 | 68 | 1011.1 |
| 20260506203058 | 16 | 0 | 0.0 | 3.2 | 0.00 | 0.00 | 0.00 | 66 | 1010.8 |
| 20260506201558 | 16 | 0 | 0.0 | 3.2 | 0.00 | 0.00 | 0.00 | 63 | 1010.8 |
| 20260506200057 | 17 | 0 | 0.0 | 4.8 | 0.00 | 0.00 | 0.00 | 62 | 1010.5 |
| 20260506194559 | 17 | 277 | 1.6 | 6.4 | 0.00 | 0.00 | 0.00 | 55 | 1010.1 |
| 20260506193104 | 17 | 0 | 1.6 | 12.9 | 0.00 | 0.00 | 0.00 | 54 | 1009.8 |
| 20260506191619 | 17 | 178 | 1.6 | 8.0 | 0.00 | 0.00 | 0.00 | 55 | 1009.4 |
| 20260506190058 | 18 | 0 | 0.0 | 3.2 | 0.00 | 0.00 | 0.00 | 57 | 1009.2 |
| 20260506184627 | 18 | 0 | 0.0 | 3.2 | 0.00 | 0.00 | 0.00 | 54 | 1009.0 |
| 20260506183104 | 19 | 175 | 0.0 | 3.2 | 0.00 | 0.00 | 0.00 | 54 | 1008.8 |
| 20260506181600 | 20 | 0 | 0.0 | 4.8 | 0.00 | 0.00 | 0.00 | 52 | 1008.7 |
| 20260506180058 | 20 | 187 | 1.6 | 8.0 | 0.00 | 0.00 | 0.00 | 50 | 1008.4 |
| 20260506174557 | 20 | 207 | 1.6 | 8.0 | 0.00 | 0.00 | 0.00 | 50 | 1008.3 |
| 20260506173100 | 21 | 0 | 1.6 | 11.3 | 0.00 | 0.00 | 0.00 | 49 | 1008.2 |
| 20260506171612 | 21 | 136 | 3.2 | 11.3 | 0.00 | 0.00 | 0.00 | 49 | 1008.2 |
| 20260506170100 | 21 | 198 | 3.2 | 12.9 | 0.00 | 0.00 | 0.00 | 49 | 1008.0 |